Regional Weather Roundup
Issued by NWS Memphis, TN

Home | Current Version | Previous Version | Text Only | Print | Product List | Glossary On
Versions: 1 2 3 4 5 6 7 8 9 10 11 12 13 14 15 16 17 18 19 20 21 22 23 24 25 26 27 28 29 30 31 32 33 34 35 36 37 38 39 40 41 42 43 44 45 46 47 48 49 50
000
ASUS44 KMEG 181710
RWRMEG
MEMPHIS CWA HOURLY WEATHER ROUNDUP
NATIONAL WEATHER SERVICE MEMPHIS TN
1200 PM CDT SAT APR 18 2015

...WEST TENNESSEE...

CITY           SKY/WX    TMP DP  RH WIND       PRES   REMARKS
MEMPHIS INTL   PTSUNNY   73  62  68 E9        29.98F
NWS MEMPHIS      N/A     73 N/A N/A MISG        N/A
JACKSON        CLOUDY    73  63  70 E6        29.98R
LEXINGTON      SUNNY     72  63  73 VRB6      29.97F
SAVANNAH       MOSUNNY   73  32  21 E6        29.98R
DYERSBURG      MOSUNNY   73  55  53 E10       29.99F
UNION CITY     MOSUNNY   72  32  23 E8        29.99S
PARIS          SUNNY     72  61  68 VRB5      30.00F


...EASTERN ARKANSAS...

CITY           SKY/WX    TMP DP  RH WIND       PRES   REMARKS
JONESBORO      PTSUNNY   71  63  75 SE9       29.98F
WEST MEMPHIS   PTSUNNY   73  65  75 SE8       29.96F
BATESVILLE     CLOUDY    68  63  83 E5        29.98F
NEWPORT        CLOUDY    71  64  78 VRB6      29.99F
WALNUT RIDGE   CLOUDY    72  63  73 E7        29.98F
BLYTHEVILLE    MOSUNNY   73  64  73 SE6       29.99F
SEARCY         CLOUDY    70  64  83 E5        29.98F
STUTTGART      CLOUDY    72  63  73 E6        29.96S
PINE BLUFF     CLOUDY    70  63  78 SE12      29.95S
MONTICELLO     CLOUDY    69  63  81 E6        29.93F


...NORTH MISSISSIPPI...

CITY           SKY/WX    TMP DP  RH WIND       PRES   REMARKS
TUPELO         CLOUDY    66  60  81 S7        29.99S
OXFORD         CLOUDY    63  59  88 SE5       30.01S
OLIVE BRANCH   PTSUNNY   70  66  88 SE7       29.99F
TUNICA         CLOUDY    70  63  78 SE5       29.98F
CLARKSDALE     CLOUDY    68  64  88 E10       29.98F
CORINTH        CLOUDY    72  63  73 S8        29.98S
GREENWOOD      CLOUDY    68  61  78 E7        29.96S
COLUMBUS       CLOUDY    68  61  77 VRB3      29.97S
STARKVILLE     CLOUDY    64  61  88 CALM      29.99S
GOLDEN TRIANGL CLOUDY    66  61  82 SE9       29.97R


...SOUTHEAST MISSOURI...

CITY           SKY/WX    TMP DP  RH WIND       PRES   REMARKS
WEST PLAINS    CLOUDY    67  59  75 SE8       30.01S
POPLAR BLUFF   CLOUDY    73  62  68 SE9       29.98F
CAPE GIRARDEAU CLOUDY    74  63  68 SE9       29.99F


...NORTHWEST ALABAMA...

CITY           SKY/WX    TMP DP  RH WIND       PRES   REMARKS
MUSCLE SHOALS  CLOUDY    71  62  73 SE7       29.99F


...MIDDLE TENNESSEE...

CITY           SKY/WX    TMP DP  RH WIND       PRES   REMARKS
NASHVILLE      CLOUDY    75  60  59 E3        29.99F
CLARKSVILLE    MOSUNNY   74  61  63 SE9       29.99F
COLUMBIA       SUNNY     73  32  21 E7        29.97F


...WESTERN KENTUCKY...

CITY           SKY/WX    TMP DP  RH WIND       PRES   REMARKS
PADUCAH        MOSUNNY   75  60  59 SE7       29.99F
FORT CAMPBELL  MOSUNNY   74  61  64 SE8       29.99F


...CENTRAL ARKANSAS...

CITY           SKY/WX    TMP DP  RH WIND       PRES   REMARKS
LITTLE ROCK    CLOUDY    70  61  73 E7        29.97R


SKY/WX REPORTED AS FAIR MEANS FEW OR NO CLOUDS BELOW
12 THOUSAND FEET.



USA.gov is the U.S. government's official web portal to all federal, state and local government web resources and services.